Location: Hilton Head Island
(32.2163°N, 80.7526°W)
Time: 22:48:08
(UTC-05:00)

Vanguard 2 Rocket - Pass Details

Date: 18 February 2026
Orbit: 553 x 3286 km, 32.9° (Epoch: 7 March)

Event Time Altitude Azimuth Distance (km) Brightness Sun altitude
Rises 19:29:37 0° 282° (WNW) 5,104 12.2 -17.1°
Reaches altitude 10° 19:34:28 10° 269° (W) 3,567 11.2 -18.1°
Maximum altitude 19:40:30 21° 224° (SW) 2,157 9.3 -19.4°
Drops below altitude 10° 19:44:47 10° 175° (S) 2,422 9.0 -20.3°
Enters shadow 19:46:47 - 161° (SSE) 2,934 9.3 -20.7°
Sets 19:47:22 0° 158° (SSE) 3,106 - -20.9°
